User: anonymous   Login
Location: Weston
(26.1283°N, 80.4075°W)
Time: 06:25:32
(UTC-04:00)
Language:

H-2A R/B - Orbit

View from above orbital plane
View from above orbital plane
View from above satellite
View from above satellite

Ground track
Ground track

The orbit data is extracted from the following two-line orbital elements,

1 26899U 01038B   14304.51230576  .00001718  00000-0  63060-3 0   689
2 26899 028.0412 092.7454 7150622 276.5911 021.5102 02.44011025112855
Epoch (UTC): 31 October 2014 12:17:43
Eccentricity: 0.7150622
inclination: 28.0412°
perigee height: 262 km
apogee height: 33592 km
right ascension of ascending node: 92.7454°
argument of perigee: 276.5911°
revolutions per day: 2.44011025
mean anomaly at epoch: 21.5102°
orbit number at epoch: 11285

The dashed part of the orbit path shows where the satellite is in the earth's shadow,  

DLR